Location: Erdweis
(48.5167°N, 15.3500°E)
Time: 05:15:47
(UTC+00:00)

N. Korean satellite - Visible Passes

Search period start: 25 November 2020 00:00
Search period end: 05 December 2020 00:00
Orbit: 452 x 504 km, 97.2° (Epoch: 24 November)

Date Brightness Start Highest point End Pass type
(mag) Time Alt. Az. Time Alt. Az. Time Alt. Az.
25 Nov 9.5 03:39:37 10° NE 03:42:09 18° E 03:44:41 10° SE visible
25 Nov 7.1 05:12:19 10° N 05:15:36 36° WNW 05:18:55 10° SW visible
25 Nov 7.4 15:50:44 10° S 15:54:04 53° W 15:57:27 10° NNW visible
26 Nov 6.4 04:45:51 10° N 04:49:25 75° WNW 04:53:01 10° SSW visible
27 Nov 7.4 04:19:37 10° NNE 04:23:08 52° E 04:26:40 10° S visible
27 Nov 9.6 16:32:39 10° SW 16:35:03 18° W 16:37:28 10° NW visible
28 Nov 8.8 03:53:41 10° NE 03:56:45 26° E 03:59:50 10° SSE visible
28 Nov 7.6 05:27:01 10° N 05:30:02 25° WNW 05:33:03 10° SW visible
28 Nov 8.3 16:05:26 10° SSW 16:08:35 35° W 16:11:47 10° NNW visible
29 Nov 9.8 03:28:20 10° ENE 03:30:15 14° E 03:32:12 10° ESE visible
29 Nov 6.7 05:00:23 10° N 05:03:52 49° WNW 05:07:23 10° SSW visible
29 Nov 6.7 15:38:49 10° S 15:42:13 77° WSW 15:45:42 10° NNW visible
30 Nov 6.6 04:33:59 10° NNE 04:37:37 80° ESE 04:41:16 10° S visible
30 Nov 9.9 16:48:06 10° WSW 16:49:37 12° W 16:51:08 10° WNW visible
01 Dec 8.1 04:07:51 10° NNE 04:11:15 38° E 04:14:41 10° SSE visible
01 Dec 8.0 05:41:47 10° NNW 05:44:21 19° WNW 05:46:56 10° WSW visible
01 Dec 9.1 16:20:14 10° SSW 16:23:04 24° W 16:25:57 10° NW visible
02 Dec 9.3 03:42:04 10° NE 03:44:48 20° E 03:47:33 10° SE visible
02 Dec 7.2 05:14:55 10° N 05:18:13 34° WNW 05:21:33 10° SW visible
02 Dec 7.6 15:53:18 10° S 15:56:38 49° W 16:00:02 10° NNW visible
03 Dec 10.2 03:17:37 10° ENE 03:18:15 10° E 03:18:53 10° E visible
03 Dec 6.5 04:48:22 10° N 04:52:00 69° WNW 04:55:38 10° SSW visible
04 Dec 7.2 04:22:05 10° NNE 04:25:40 57° E 04:29:17 10° S visible
04 Dec 8.3 05:56:42 10° NNW 05:58:35 14° WNW 06:00:29 10° W visible
04 Dec 9.7 16:35:13 10° SW 16:37:31 17° W 16:39:52 10° NW visible
